Theta_e
342 345 344 344 343 345 345 345 344 344 345 345 346 345 342 345 345 345 347 347 347 343 343 343 342 344 342 344 345 344 343 343 342
343 343 344 344 344 343 344 345 344 344 345 344 345 345 341 343 345 344 344 344 347 346 346 347 345 341 343 341 341 343 345 344 341
344 342 345 345 344 345 344 344 345 345 344 345 345 346 343 343 346 345 343 345 345 344 344 345 344 345 346 344 343 340 341 343 344
345 344 342 342 343 343 344 344 343 343 345 345 345 345 344 343 345 346 347 345 345 346 345 345 345 344 346 347 345 343 340 344 343
340 342 343 344 343 341 342 344 343 344 345 344 344 343 344 344 345 344 342 343 344 344 345 345 346 346 346 346 347 348 344 344 343
341 340 339 339 344 344 344 342 342 343 343 343 342 344 345 345 346 344 341 339 341 346 343 346 345 346 345 344 345 344 343 346 344
338 337 340 340 342 340 343 344 344 344 344 344 343 343 346 345 343 343 342 342 340 341 341 345 345 347 347 346 346 344 342 343 343
338 338 339 340 342 342 343 341 343 339 343 343 343 337 336 331 336 337 339 341 341 341 341 342 343 344 346 348 346 348 345 348 348
335 335 334 337 339 343 340 341 341 340 343 338 334 342 338 333 338 340 341 340 340 343 342 346 343 342 342 343 349 346 349 349 347
334 333 332 333 333 337 340 340 339 340 341 341 332 332 334 334 340 342 341 342 343 344 344 344 343 344 345 344 344 346 347 345 345
333 331 331 332 332 333 335 337 337 339 338 339 339 339 339 339 339 340 339 337 337 337 335 336 340 342 343 343 344 343 343 344 345
332 332 332 333 333 332 332 332 332 333 332 332 332 331 332 332 334 334 334 334 335 336 337 335 339 342 341 340 342 343 343 344 344
330 329 331 330 332 330 329 326 326 326 323 323 323 322 324 327 327 329 329 329 330 331 332 334 335 335 334 333 336 339 340 341 341
324 324 324 324 325 325 323 321 321 320 319 318 316 315 315 315 315 316 316 318 320 319 322 326 327 328 330 334 335 332 331 335 339
321 321 320 320 320 318 315 313 312 311 310 310 310 309 309 309 309 310 312 313 314 316 317 319 322 325 326 326 327 330 326 327 328
320 319 319 317 317 314 312 311 310 308 307 306 306 305 305 306 306 306 307 309 309 310 311 314 317 320 323 325 328 328 327 325 323
318 318 316 315 313 312 311 310 308 306 304 303 303 303 303 303 304 304 305 305 306 308 309 310 311 313 316 318 319 322 323 322 322
319 316 315 314 313 312 311 309 307 304 303 303 303 303 303 303 304 304 304 305 305 306 306 307 308 309 310 311 312 314 315 317 318
320 315 315 314 313 312 310 308 306 303 303 302 302 302 303 303 303 304 304 304 305 305 306 307 307 308 308 309 309 309 311 312 314
317 316 315 315 313 311 311 309 305 303 303 303 302 302 302 303 303 302 302 302 302 302 302 303 303 304 305 305 306 306 307 308 309
Wind_Speed
31 27 6 8 25 25 28 31 28 28 24 24 22 18 19 15 12 11 9 12 12 11 12 10 10 12 12 10 10 9 10 9 8
29 32 18 11 11 26 28 29 30 30 27 24 23 19 18 17 15 11 13 11 12 12 12 11 9 10 11 11 11 13 11 11 11
29 37 34 17 16 16 21 26 29 28 27 25 23 21 19 17 13 11 11 12 15 13 12 12 10 10 10 10 10 12 13 12 13
28 31 31 30 20 22 21 25 32 28 27 27 25 23 21 19 14 13 11 9 17 14 12 11 12 12 11 11 11 10 12 14 12
18 22 21 24 26 28 27 27 30 25 26 23 23 21 21 20 16 15 13 12 9 10 11 12 13 11 13 12 13 13 13 12 13
13 14 14 14 17 9 28 35 36 31 29 28 26 22 20 20 17 16 17 15 15 14 13 11 11 11 6 7 9 10 13 12 12
14 10 10 12 12 9 19 21 18 11 19 27 26 22 20 15 13 14 16 17 18 17 16 15 13 11 10 8 8 10 11 11 10
11 9 8 10 12 12 20 12 14 13 16 17 23 15 18 8 7 10 14 17 18 20 17 16 16 15 13 11 13 12 15 13 12
13 10 8 10 13 17 16 14 17 15 17 17 13 26 22 11 9 9 8 15 15 20 19 18 17 17 18 17 15 16 15 16 16
18 17 15 14 12 16 22 23 22 23 26 17 14 21 20 19 11 9 7 9 10 14 14 15 18 17 16 17 18 17 17 18 18
20 19 20 20 20 21 22 24 24 24 23 25 21 18 16 13 8 6 9 8 7 7 6 6 11 14 13 11 15 18 19 19 18
24 24 23 24 23 24 25 24 24 24 22 22 21 18 15 11 9 7 6 6 6 5 6 6 4 8 6 3 6 11 15 21 22
22 21 20 21 21 22 22 20 17 17 17 15 15 13 12 10 8 7 6 5 3 3 2 3 3 4 5 6 6 7 11 12 12
24 23 23 20 19 18 16 15 12 12 12 10 10 8 6 5 5 5 4 4 3 3 2 2 1 1 2 4 6 7 4 4 4
26 24 22 18 17 15 14 10 7 7 5 6 5 3 3 3 3 2 1 1 1 1 1 1 2 1 1 0 2 6 11 14 12
28 23 20 16 13 13 11 8 5 3 3 3 2 2 3 3 2 2 2 3 4 4 5 5 4 5 4 3 6 9 9 9 10
26 22 19 16 12 9 7 5 3 2 2 2 2 2 2 2 2 3 4 4 5 6 6 7 7 8 8 8 9 10 12 12 14
18 22 17 12 9 5 3 3 3 3 3 3 1 1 2 1 1 1 2 3 4 5 6 6 7 8 10 11 12 12 13 14 15
32 25 20 16 10 4 1 2 3 2 2 2 1 1 1 1 1 0 0 0 2 3 4 6 7 9 10 11 15 17 17 18 20
29 23 19 14 8 4 1 3 3 3 2 3 3 2 2 2 2 2 2 2 2 1 2 3 6 8 11 13 15 17 19 21 23
Wind_Direction
188 195 174 195 216 221 224 223 221 216 214 212 211 212 214 221 218 209 222 219 215 207 205 203 200 203 206 216 214 212 222 224 236
184 206 214 205 200 215 223 229 227 224 223 219 217 219 216 220 226 225 221 228 219 212 210 206 202 203 209 219 219 219 226 238 245
184 196 206 215 222 211 216 227 232 233 232 224 223 222 222 217 227 223 212 225 212 216 211 209 209 215 212 218 228 229 232 236 240
189 203 216 224 230 236 236 225 225 241 240 228 225 224 223 221 223 234 232 246 213 212 212 213 220 218 228 229 234 245 236 236 240
174 185 194 210 230 232 228 217 227 241 241 228 225 224 220 223 227 231 237 241 233 213 217 233 228 241 237 240 231 242 236 233 234
172 184 196 192 212 230 226 225 231 241 234 218 214 214 216 225 233 235 236 235 241 236 239 244 241 233 239 220 227 242 237 235 232
160 160 177 198 193 198 216 199 204 214 205 201 205 195 202 213 232 242 245 244 239 237 241 240 242 249 257 251 246 240 231 237 244
155 159 175 180 198 196 201 200 199 204 211 213 226 192 197 211 290 268 252 251 250 239 238 240 240 240 245 247 251 250 247 247 254
141 148 158 174 182 185 188 202 214 209 198 136 172 208 213 245 289 278 262 231 232 241 235 235 237 241 243 247 246 243 243 243 253
141 140 141 135 142 165 166 173 170 162 168 176 196 187 209 240 249 225 197 175 195 211 233 240 236 237 242 241 245 251 250 252 258
151 143 130 124 129 137 143 152 160 157 148 153 171 182 196 203 203 197 202 206 188 204 262 284 275 256 261 254 251 254 255 255 259
153 144 135 129 127 124 125 128 130 137 137 139 145 143 147 148 152 161 158 164 154 189 211 224 245 249 245 259 273 279 275 271 263
153 145 141 139 137 131 125 120 122 127 125 130 129 126 128 133 135 135 137 131 132 149 193 187 201 237 267 282 324 300 288 288 285
159 151 148 148 140 136 131 129 132 132 130 133 121 120 123 134 143 144 134 121 122 102 83 65 56 320 244 222 274 322 341 259 249
163 159 155 155 153 145 137 132 137 137 145 130 130 138 171 186 194 182 191 266 276 249 219 217 162 187 260 293 223 271 298 314 322
167 166 163 162 166 156 143 134 125 128 133 133 147 186 210 223 240 248 252 250 248 251 254 250 238 219 207 206 222 233 249 268 293
170 173 171 169 166 151 137 118 94 87 90 92 112 145 171 203 243 260 265 264 264 267 267 273 269 263 256 253 256 256 259 265 268
198 188 177 172 165 145 108 72 44 48 67 72 64 87 108 134 188 234 269 278 288 294 292 282 282 287 285 279 276 281 284 280 273
206 186 185 183 179 170 94 3 342 353 19 34 47 77 95 89 90 112 164 347 322 332 315 306 306 302 292 290 291 288 285 282 282
193 196 198 199 193 191 359 350 327 305 312 327 335 349 20 41 48 49 35 25 47 88 359 309 291 287 289 294 291 289 290 289 286